www.pogodaiklimat.ru
ПОГОДА в Сплите

Архив погоды в Сплите (Хорватия)

Время
(UTC), дата
13 26.11
14 26.11
15 26.11
16 26.11
17 26.11
18 26.11
19 26.11
20 26.11
21 26.11
00 27.11
03 27.11
04 27.11
05 27.11
06 27.11
07 27.11
08 27.11
09 27.11
10 27.11
11 27.11
12 27.11
13 27.11
14 27.11
15 27.11
16 27.11
17 27.11
18 27.11
19 27.11
20 27.11
21 27.11
00 28.11
03 28.11
04 28.11
05 28.11
06 28.11
07 28.11
08 28.11
09 28.11
10 28.11
11 28.11
12 28.11
13 28.11
14 28.11
15 28.11
16 28.11
17 28.11
18 28.11
19 28.11
20 28.11
21 28.11
00 29.11
03 29.11
04 29.11
05 29.11
06 29.11
07 29.11
08 29.11
09 29.11
10 29.11
11 29.11
12 29.11
13 29.11
14 29.11
15 29.11
16 29.11
17 29.11
18 29.11
19 29.11
20 29.11
21 29.11
00 30.11
03 30.11
04 30.11
05 30.11
06 30.11
07 30.11
08 30.11
09 30.11
10 30.11
11 30.11
12 30.11
13 30.11
14 30.11
15 30.11
16 30.11
17 30.11
18 30.11
19 30.11
20 30.11
21 30.11
00 1.12
03 1.12
04 1.12
05 1.12
06 1.12
07 1.12
08 1.12
09 1.12
10 1.12
11 1.12
12 1.12
13 1.12
14 1.12
15 1.12
16 1.12
17 1.12
18 1.12
19 1.12
20 1.12
21 1.12
00 2.12
03 2.12
04 2.12
05 2.12
06 2.12
07 2.12
08 2.12
09 2.12
10 2.12
11 2.12
12 2.12
13 2.12
14 2.12
15 2.12
16 2.12
17 2.12
18 2.12
19 2.12
20 2.12
21 2.12
00 3.12
03 3.12
04 3.12
05 3.12
06 3.12
07 3.12
08 3.12
09 3.12
10 3.12
11 3.12
12 3.12
Ветер
(напр.,м/с)
Видим. Явления Облачность Т
(С)
Тd
(С)
f
(%)
Тe
(С)
Тes
(С)
Комфортность P
(гПа)
Po
(гПа)
Тmin
(С)
Tmax
(С)
R
(мм)
R24
(мм)
S
(см)
ЮЗ 4 50 км 6/3 600 м
[Cu med, cong Ci fib]
+14.8 +10.0 73 +14 +15 997.1 982.2
ЮЗ 3 50 км 8/5 600 м
[Cu Sc Ac trans Ci fib]
+14.1 +9.1 72 +13 +13 997.7 982.7
ЮЗ 3 45 км 8/8 600 м
[Cu Sc Ci fib]
+13.6 +9.3 75 +12 +12 997.4 982.4
Ю 1 н/о н/о +13.2 +9.1 76 +13 +13 997.3 982.2
В 3 н/о н/о +12.6 +9.3 80 +11 +11 996.5 981.4
ЮВ 3 20 км гроза, ливневой дождь 10/8 600 м
[Cb cap As op]
+12.6 +10.3 86 +11 +11 996.0 981.0 +15.0 6
ЮВ 10 20 км гроза, ливневой дождь 10/8 600 м
[Cb cap As op]
+12.8 +11.0 89 +9 +9 994.8 979.8
ЮЗ 12
{18}
20 км зарница {дождь} 10/8 600 м
[Cb cap As op]
+13.7 +10.3 80 +10 +10 994.8 979.8
ЮЗ 11 20 км зарница {гроза, дождь} 9/9 600 м
[Cb cap]
+13.4 +9.8 79 +10 +10 994.8 979.8
СЗ 3 20 км гроза, ливневой дождь 10/8 600 м
[Cb cap As op]
+11.6 +8.6 82 +10 +10 996.6 981.5 4
ЮВ 4 20 км {гроза, дождь} 5/1 600 м
[Cu med, cong Ac trans]
+11.3 +8.5 83 +9 +9 998.1 983.0
ЮВ 5 20 км 6/4 600 м
[Cu Sc Ac trans]
+11.8 +9.4 85 +9 +9 998.3 983.2
ЮВ 6 20 км 8/1 1000 м
[Cu hum Ac trans]
+11.9 +9.2 84 +9 +9 998.6 983.5
ЮВ 6 30 км {гроза, дождь} 8/8 1000 м
[Cu Sc]
+12.3 +9.0 80 +10 +10 998.4 983.3 +10.8 4 10.5
ЮВ 7 40 км 5/1 1000 м
[Cu med, cong Ac trans Ci fib]
+12.8 +9.2 79 +10 +10 998.6 983.5
ЮВ 8 35 км 8/8 1000 м
[Cu Sc]
+13.3 +9.7 79 +11 +11 998.5 983.5
Ю 9 35 км в посл. час дождь 8/5 1000 м
[Cu Sc Ci sp]
+14.4 +8.4 67 +12 +12 998.0 983.0
ЮЗ 9
{17}
35 км 9/9 600 м
[Cu Sc]
+15.4 +9.0 66 +13 +13 998.3 983.4
ЮЗ 10
{18}
30 км 9/9 600 м
[Cu Sc]
+15.2 +8.3 63 +13 +13 997.9 983.0
ЮЗ 11 30 км {дождь} 9/9 600 м
[Frnb]
+15.0 +8.5 65 +13 +13 997.4 982.5 0.3 6.2
Ю 11 30 км слаб. дождь 10/8 600 м
[Frnb As op]
+14.9 +9.0 68 +12 +12 997.2 982.3
Ю 9 25 км в посл. час дождь 9/8 600 м
[Cu Sc Ci sp]
+13.6 +11.3 86 +11 +11 997.4 982.4
Ю 7 18 км {дождь} 9/8 600 м
[Frnb Ci sp]
+13.6 +10.8 83 +11 +11 997.1 982.1
ЮЗ 12 н/о н/о +13.9 +10.4 79 +11 +11 996.9 981.8
Ю 11 н/о н/о +14.1 +10.4 78 +11 +11 997.0 982.0
ЮЗ 11
{19}
20 км в посл. час дождь 8/8 600 м
[Sc]
+14.3 +9.1 71 +11 +11 996.8 981.8 +15.6 3
ЮЗ 9 20 км слаб. дождь 8/8 600 м
[Sc]
+14.2 +9.9 75 +12 +12 997.0 982.0
ЮЗ 26 20 км в посл. час дождь 8/8 600 м
[Sc]
+14.1 +10.0 76 +10 +10 997.2 982.2
ЮЗ 6 20 км 6/6 600 м
[Sc]
+14.1 +9.5 74 +12 +12 997.2 982.2
Ю 7 20 км 4/3 600 м
[Sc Ci sp]
+14.1 +9.8 75 +12 +12 997.0 982.0 0.3
Ю 9 20 км 8/8 600 м
[Sc]
+13.8 +8.1 68 +11 +11 997.0 982.0
Ю 8 20 км слаб. дождь 9/9 600 м
[Sc]
+13.8 +8.9 72 +11 +11 997.0 982.0
Ю 9 20 км в посл. час дождь 9/9 600 м
[Sc]
+13.8 +9.9 77 +11 +11 996.4 981.4
Ю 10 30 км {дождь} 10/10 600 м
[Frnb]
+14.4 +9.6 73 +12 +12 995.2 980.3 +13.2 0.4 2.9
Ю 14-20
{21}
30 км 9/9 600 м
[Frnb]
+14.7 +9.0 69 +12 +12 995.2 980.3
ЮЗ 14-20
{22}
30 км 10/8 600 м
[Frnb As op]
+14.4 +9.8 74 +11 +11 995.4 980.5
ЮЗ 16-23
{24}
25 км {дождь} 9/9 600 м
[Cu Sc]
+15.0 +9.3 69 +12 +12 995.0 980.1
ЮЗ 17
{27}
30 км 9/9 600 м
[Cu Sc]
+15.2 +9.3 68 +12 +12 994.8 979.9
ЮЗ 19
{28}
30 км 10/10 600 м
[Cu Sc]
+15.6 +8.8 64 +13 +13 993.7 978.9
ЮЗ 18-24
{28}
15 км слаб. дождь 10/8 600 м
[Frnb As op]
+14.6 +9.2 70 +11 +11 993.8 978.9 0.5 3.1
ЮЗ 16
{22}
10 км слаб. дождь 10/6 300 м
[Frnb As op]
+14.0 +9.9 76 +10 +10 993.3 978.4
ЮЗ 11
{24}
6000 м слаб. дождь 10/8 300 м
[Frnb As op]
+12.5 +10.4 87 +9 +9 993.2 978.2
ЮЗ 6-15
{24}
20 км слаб. дождь 10/8 600 м
[Cu Sc As op]
+13.0 +11.1 88 +11 +11 992.7 977.7
ЮЗ 7 н/о н/о +12.6 +9.7 82 +10 +10 993.3 978.2
СВ 3 н/о н/о +9.3 +7.6 89 +7 +7 994.6 979.3
В 4
{18}
10 км слаб. дождь 10/6 600 м
[Frnb As op]
+9.5 +7.6 88 +7 +7 993.8 978.6 +15.7 8
В 4 20 км гроза без осадков {дождь} 10/5 600 м
[Cb cap As op]
+9.4 +7.5 88 +6 +6 993.4 978.2
С 6 20 км слаб. дождь {гроза} 10/6 600 м
[Cu Sc Ac As]
+8.0 +6.0 87 +4 +4 994.4 979.1
С 3 20 км в посл. час дождь {гроза} 9/9 600 м
[Cu Sc]
+9.6 +6.5 81 +7 +7 994.9 979.7
С 3 20 км {гроза, дождь} 6/0
[Ac trans Ci sp]
+9.6 +2.4 61 +8 +8 995.5 980.3 2
С 3 20 км 3/0
[Ac trans Ci sp]
+9.4 0.0 52 +8 +8 994.8 979.6
В 3 20 км 4/0
[Ac trans Ci sp]
+9.0 +0.6 56 +7 +7 995.2 980.0
В 4 20 км 9/5 1000 м
[Cu Sc Ac As]
+8.2 +1.7 64 +5 +5 995.2 979.9
ЮВ 3 20 км 9/5 1000 м
[Cu Sc Ac As]
+9.2 +1.4 58 +7 +7 995.8 980.6 +7.8 2 10.0
ЮВ 5 30 км 10/3 1000 м
[Cu Sc Ac As]
+9.4 +1.9 59 +6 +6 996.1 980.9
ЮВ 6 30 км слаб. дождь 10/3 1000 м
[Cu Sc As op]
+9.3 +4.2 70 +6 +6 996.7 981.5
СВ 5 40 км гроза, ливневой дождь 10/8 1000 м
[Cb cap As op]
+7.6 +3.8 77 +4 +4 997.3 982.0
СВ 8 30 км гроза, ливневой дождь 10/8 600 м
[Cb cap As op]
+6.8 +2.9 76 +2 +2 997.0 981.6
СВ 9 10 км дождь {гроза} 10/3 600 м
[Frnb As op]
+5.5 +3.6 88 -1 -0 996.7 981.3
СВ 6 8000 м гроза, ливневой дождь 10/8 600 м
[Cb cap As op]
+5.2 +3.3 88 0 0 996.9 981.4 4 13.2
СВ 8 8000 м дождь {гроза} 10/1 600 м
[Cu hum As op]
+5.1 +3.4 89 -1 -1 996.7 981.2
В 9 15 км слаб. дождь 10/1 600 м
[Cu hum As op]
+5.4 +3.2 86 -1 -1 996.3 980.9
СВ 8 20 км в посл. час дождь {гроза} 9/4 600 м
[Cu Sc As op]
+4.8 +2.6 86 -1 -1 996.3 980.8
н/о н/о +4.5 +1.9 83 996.8 981.2
СВ 13 н/о н/о +5.8 -0.9 62 -1 -1 997.2 981.7
СВ 11-18
{24}
20 км {гроза, дождь} 10/8 1000 м
[Sc As op]
+6.2 -2.4 54 +1 +1 998.1 982.7 +9.5 15
СВ 13 20 км 10/8 1500 м
[Sc As op]
+6.4 -3.3 50 0 0 998.7 983.3
СВ 15 20 км 10/8 1500 м
[Sc As op]
+6.0 -4.3 48 -1 -1 999.5 984.0
СВ 13-20
{28}
20 км 10/8 1500 м
[Sc As op]
+5.6 -4.2 49 -1 -1 1000.9 985.4
СВ 14-23
{25}
20 км 9/5 1500 м
[Sc Ac As]
+5.6 -5.6 44 -1 -1 1003.9 988.3
СВ 14-21
{25}
20 км 1/0
[Ac lent]
+5.4 -6.0 44 -1 -1 1008.0 992.3
СВ 13 20 км 1/0
[Ac lent]
+5.4 -6.8 41 -1 -1 1009.2 993.5
СВ 9
{18}
20 км 1/0
[Ac trans]
+5.4 -6.8 41 0 0 1010.7 995.0
С 8
{22}
50 км 1/1 1000 м
[Cu med, cong Ac trans]
+5.6 -7.7 38 +1 +1 1011.9 996.2 +5.1 14.5
С 4 50 км 1/1 1000 м
[Cu hum]
+5.7 -8.4 35 +3 +3 1013.7 998.0
С 5 50 км 1/1 1000 м
[Cu hum]
+5.4 -5.5 45 +2 +2 1015.3 999.5
СЗ 4 50 км 1/1 600 м
[Cu hum]
+6.0 -6.6 40 +3 +4 1016.0 1000.3
СЗ 4 50 км 1/1 600 м
[Cu hum]
+7.1 -6.0 39 +4 +6 1016.3 1000.6
СЗ 4 50 км 1/1 600 м
[Cu hum]
+7.6 -6.3 37 +5 +7 1016.6 1000.9
СЗ 4 50 км 1/1 600 м
[Cu hum]
+8.2 -7.7 32 +6 +8 1015.8 1000.2 10.8
СЗ 4 50 км 1/1 600 м
[Cu hum]
+8.5 -8.0 30 +6 +7 1015.8 1000.2
СЗ 2 50 км 1/1 1000 м
[Cu hum]
+8.7 -6.8 33 +8 +8 1015.8 1000.2
З 2 50 км 3/3 600 м
[Cu Sc]
+8.4 -6.1 35 +7 +7 1016.2 1000.6
С 2 н/о н/о +7.8 -4.9 40 +7 +7 1016.8 1001.1
СЗ 3 н/о н/о +8.0 -4.1 42 +6 +6 1016.9 1001.2
З 1 20 км 3/3 1000 м
[Sc]
+7.9 -3.2 45 +8 +8 1017.1 1001.5 +9.0
СЗ 1 20 км 1/1 1000 м
[Sc]
+7.9 -2.3 48 +8 +8 1017.2 1001.6
СВ 1 20 км 1/1 1000 м
[Sc]
+7.7 -1.9 51 +7 +7 1017.4 1001.7
В 2 20 км 1/1 1000 м
[Cu hum]
+7.5 -2.2 50 +6 +6 1017.2 1001.5
В 4 н/о н/о +7.0 -3.2 48 +4 +4 1017.4 1001.7
В 4 20 км 3/3 1000 м
[Cu Sc]
+6.5 +2.1 73 +3 +3 1016.8 1001.1
СВ 4 20 км 3/3 1000 м
[Sc]
+6.4 -2.8 52 +3 +3 1017.0 1001.3
В 5 20 км 3/3 1000 м
[Sc]
+6.2 -2.2 55 +2 +2 1017.0 1001.3
СВ 4 50 км 3/3 1000 м
[Sc Ci sp]
+6.1 -1.4 59 +3 +3 1017.1 1001.4 +6.0
СВ 4 50 км 6/3 1000 м
[Sc Ci sp]
+6.5 -0.9 59 +3 +3 1017.3 1001.6
В 4 50 км 6/3 1000 м
[Cu Sc Ci sp]
+7.5 +0.2 60 +4 +5 1017.4 1001.7
В 4 50 км 4/3 1000 м
[Sc Ci sp]
+9.0 +1.5 59 +6 +7 1017.3 1001.7
ЮВ 5 50 км 5/4 1000 м
[Sc Ci sp]
+11.2 +5.2 67 +9 +10 1016.6 1001.2
ЮВ 6 50 км 8/5 1000 м
[Sc Ac trans Ci sp]
+12.0 +5.3 64 +9 +10 1015.9 1000.5
ЮВ 7 50 км 8/6 1000 м
[Sc Ac trans]
+11.6 +5.3 65 +9 +9 1015.2 999.8
Ю 6 50 км 6/4 1000 м
[Sc Ac trans]
+13.2 +3.9 53 +11 +12 1014.1 998.8
ЮВ 8 50 км 8/5 1000 м
[Sc Ac trans]
+12.0 +5.3 64 +9 +9 1013.3 998.0
ЮВ 9 50 км 4/3 1000 м
[Sc Ac trans]
+12.1 +4.5 60 +9 +9 1013.0 997.7
ЮВ 10 н/о н/о +11.5 +4.5 62 +8 +8 1012.7 997.3
ЮВ 9 н/о н/о +11.9 +4.7 61 +9 +9 1012.4 997.0
ЮВ 7 20 км 9/6 1000 м
[Cu Sc Ac As]
+12.2 +5.5 64 +9 +9 1011.7 996.4 +13.2
ЮВ 8 20 км 9/4 1000 м
[Cu Sc Ac As]
+12.4 +6.7 68 +9 +9 1011.3 996.0
ЮВ 7 20 км 9/8 600 м
[Cu Sc Ac trans]
+12.6 +7.7 72 +10 +10 1010.5 995.2
Ю 7 20 км слаб. дождь 9/6 600 м
[Cu Sc As op]
+12.5 +8.2 75 +10 +10 1009.8 994.5
Ю 7 20 км {дождь} 8/6 600 м
[Cu Sc Ac trans]
+13.1 +8.7 75 +11 +11 1007.9 992.7 0.1
Ю 8 20 км 9/8 600 м
[Cu Sc]
+13.3 +8.7 74 +11 +11 1005.9 990.7
Ю 9 20 км 9/9 600 м
[Cu Sc]
+13.2 +9.2 77 +10 +10 1005.1 990.0
н/о н/о +13.1 +10.3 83 1004.7 989.5
Ю 9 20 км в посл. час дождь 9/9 600 м
[Cu Sc]
+13.5 +10.7 83 +11 +11 1004.3 989.2 +12.2 1 1.0
Ю 12
{16}
35 км в посл. час дождь 9/9 600 м
[Cu Sc]
+13.7 +9.6 76 +10 +10 1003.9 988.8
Ю 11
{16}
35 км 9/9 600 м
[Cu Sc]
+14.0 +9.1 72 +11 +11 1003.9 988.8
Ю 11
{17}
35 км {дождь} 9/8 600 м
[Cu Sc As op]
+14.4 +9.0 70 +12 +12 1003.9 988.8
Ю 14
{19}
35 км в посл. час дождь 9/8 600 м
[Cu Sc Ac trans]
+14.6 +9.2 70 +12 +12 1003.0 988.0
Ю 13
{20}
35 км 9/8 600 м
[Cu Sc Ac trans]
+14.8 +9.1 69 +12 +12 1002.3 987.3
Ю 12-16
{20}
40 км {дождь} 9/6 1000 м
[Cu Sc As op]
+14.7 +8.5 66 +12 +12 1001.6 986.6 0.2 1.2
Ю 14
{19}
40 км 10/8 1000 м
[Cu Sc As op]
+14.8 +8.5 66 +12 +12 1000.5 985.5
Ю 12
{19}
30 км слаб. дождь 10/8 600 м
[Cu Sc As op]
+14.6 +9.8 73 +12 +12 1000.0 985.0
Ю 13-18
{20}
15 км слаб. дождь 10/8 600 м
[Cu Sc As op]
+13.7 +10.3 80 +10 +10 999.2 984.2
Ю 12 н/о н/о +13.1 +11.2 88 +9 +9 999.4 984.3
ЮВ 9 н/о н/о +13.2 +11.5 89 +10 +10 999.0 983.9
Ю 14
{19}
20 км слаб. дождь 10/10 600 м
[Cu Sc]
+14.6 +9.8 73 +11 +11 998.1 983.1 +15.0 2
ЮЗ 15
{23}
10 км дождь 10/10 600 м
[Cu Sc]
+14.1 +10.4 78 +11 +11 997.8 982.8
ЮЗ 14
{23}
8000 м дождь 10/10 600 м
[Cu Sc]
+12.8 +10.7 87 +9 +9 998.5 983.4
ЮЗ 8 15 км слаб. дождь 10/9 600 м
[Frnb As op]
+13.4 +10.8 84 +11 +11 998.4 983.4
ЮЗ 9
{21}
8000 м дождь 10/10 600 м
[Frnb]
+13.0 +8.6 75 +10 +10 999.3 984.2 5
Ю 2 20 км в посл. час дождь 10/8 600 м
[Frnb As op]
+11.0 +9.3 89 +10 +10 1000.5 985.3
ЮВ 2 20 км 10/8 600 м
[Frnb As op]
+11.2 +9.4 89 +10 +10 1001.3 986.1
СВ 5 20 км 10/8 600 м
[Frnb As op]
+10.0 +7.7 86 +7 +7 1001.9 986.6
СВ 6 20 км 10/8 600 м
[Frnb As op]
+10.0 +3.8 65 +7 +7 1002.8 987.5 +10.0 22 23.5
СВ 9 40 км 10/8 1000 м
[Sc As op]
+9.3 +1.7 59 +5 +5 1003.9 988.5
СВ 10 50 км 9/6 1000 м
[Sc Ac As]
+9.1 +1.5 59 +5 +5 1004.5 989.1
СВ 9 50 км 8/4 600 м
[Cu Sc Ci sp]
+9.7 +1.4 56 +6 +6 1005.2 989.8
СВ 8 50 км 9/3 600 м
[Cu Sc Ac As Ci fib]
+10.2 +0.5 51 +7 +7 1005.8 990.5
СВ 9
{17}
40 км 9/3 600 м
[Cu Sc As op Ci sp]
+10.3 0.0 49 +7 +7 1005.8 990.5
СВ 9 40 км 9/3 600 м
[Cu Sc As op Ci sp]
+10.2 -1.3 45 +7 +7 1006.1 990.7 23.3
Местоположение метеостанции Сплит (Хорватия): широта 43.52 долгота 16.43 высота над уровнем моря 128 м.
В архиве по умолчанию представлена погода в Сплите за последнюю неделю. Архивные данные за месяц целиком и за предыдущие месяцы, начиная с января 2011 года, Вы можете получить, выбрав интересующий диапазон дат из раскрывающегося списка и нажав кнопку "Найти!".
*Определитесь, кто Вы:
Внимание! Время в таблицах - всемирное. Для получения местного времени необходимо прибавить поправку, которая равна 1 ч.
Смотрите также архив погоды в соседних городах и на ближайших метеорологических станциях:
Партнеры нашего сайта:      
Пояснения к столбцам:
  • Ветер - указаны скорость ветра в м/с - средняя за 10 мин, порывы в срок и между сроками (в фигурных скобках) и направление, откуда дует ветер: С - северный,
  • СВ - северо-восточный, В - восточный, ЮВ - юго-восточный, Ю - южный, ЮЗ - юго-западный, З - западный, СЗ - северо-западный.
  • Видимость - горизонтальная дальность видимости в метрах или километрах. При видимости от 1 до 10 км при отсутствии осадков обычно наблюдается дымка, при ухудшении видимости до 1 км и менее - туман. В сухую погоду видимость может ухудшаться дымом, пылью или мглою.
  • Явления - указаны атмосферные явления, наблюдавшиеся в срок или в последний час перед сроком; фигурными скобками обозначены явления, наблюдавшиеся между сроками (за 1-3 часа до срока); квадратными скобками обозначены град или гололедные отложения с указанием их диаметра в мм.
  • Облачность - указаны через наклонную черту общая и нижняя облачность в баллах и высота нижней границы облаков в метрах; квадратными скобками обозначены формы облаков: Ci - перистые, Cs - перисто-слоистые, Cc - перисто-кучевые, Ac - высококучевые, As - высокослоистые, Sc - слоисто-кучевые, Ns - слоисто-дождевые, Cu - кучевые, Cb - кучево-дождевые. Подробнее классификацию облаков см. в Атласе облаков (PDF).
  • T - Температура воздуха - температура, измеренная на высоте 2 м над землей.
  • Td - Температура точки росы - температура, при понижении до которой содержащийся в воздухе водяной пар достигнет насыщения.
  • f - Относительная влажность воздуха - влажноcть воздуха, измеренная на высоте 2 м над землей.
  • Te - Эффективная температура - температура, которую ощущает одетый по сезону человек в тени. Характеристика душности погоды. При расчете учитывается влияние влажности воздуха и скорости ветра на теплоощущения человека.
  • Tes - Эффективная температура на солнце - температура, которую ощущает человек, с поправкой на солнечный нагрев. Характеристика знойности погоды. Зависит от высоты солнца над горизонтом, облачности и скорости ветра. Ночью, в пасмурную погоду, а также при ветре 12 м/с и более поправка равна нулю.
  • P - Атмосферное давление - приведенное к уровню моря атмосферное давление.
  • Po - Атмосферное давление - измеренное на уровне метеостанции атмосферное давление.
  • Tmin - Минимальная температура - минимум температуры воздуха на высоте 2 м над землей.
  • Tmax - Максимальная температура - максимум температуры воздуха на высоте 2 м над землей.
  • R - Количество осадков - Количество выпавших осадков за период времени, мм. При наведении курсора мыши на число - период времени, за который выпало указанное количество осадков.
  • R24 - Количество осадков - Количество выпавших осадков за 24 часа, мм.
  • S - Снежный покров - Высота снежного покрова, см. При наведении курсора мыши на число - состояние снежного покрова и степень покрытия местности в баллах.